Flag for France Weather past 2 weeks in Bastia, Corsica, France

Now
70 °F

Broken clouds.


Feels Like: 70 °F
Forecast: 55 / 69 °F
Wind: 6 mph from North

Location: Bastia Airport

Current Time: May 26, 2015 at 4:56:03 PM

Latest Report: May 26, 2015 at 4:30 PM


Visibility: N/A

Pressure: 29.80 "Hg

Humidity: 69%

Dew point: 59 °F

Location of BastiaLocation

Historic Weather in Bastia — Graph

°F

Bastia temperature yesterday

Maximum temperature yesterday: 75 °F (at 2:30 PM)
Minimum temperature yesterday: 54 °F (at 12:00 AM)
Average temperature yesterday: 64 °F

Past Weeks' High & Low Weather Summary

 TemperatureHumidityPressure
High81 °F (May 12, 1:30 PM)100% (May 24, 1:30 AM)30.24 "Hg (May 24, 1:30 AM)
Low52 °F (May 16, 4:00 AM)30% (May 20, 10:30 PM)29.65 "Hg (May 15, 7:30 AM)
Average66 °F67%29.93 "Hg
* Reported May 11 4:00 PM — May 26 4:00 PM, Bastia, Weather by CustomWeather, © 2015

Note: Actual official high and low records may vary slightly from our data, if they occured in-between our weather recording intervals... More about our weather records

Advertising

Bastia weather history for previous 24 hours

 ConditionsComfort  
Time TempWeatherWind HumidityBarometerVisibility
4:00 PM
Tue, May 26
68 °FBroken clouds.3 mph73%29.80 "HgN/A
3:30 PM68 °FBroken clouds.5 mph69%29.80 "HgN/A
3:00 PM68 °FThunderstorms. Broken clouds.6 mph69%29.80 "HgN/A
2:30 PM68 °FThunderstorms. Broken clouds.7 mph69%29.80 "HgN/A
2:00 PM70 °FBroken clouds.7 mph64%29.80 "HgN/A
1:30 PM70 °FBroken clouds.8 mph64%29.80 "HgN/A
1:00 PM72 °FBroken clouds.10 mph57%29.80 "HgN/A
12:30 PM72 °FScattered clouds.9 mph61%29.80 "HgN/A
12:00 PM72 °FScattered clouds.8 mph65%29.80 "HgN/A
11:30 AM72 °FScattered clouds.8 mph65%29.80 "HgN/A
11:00 AM72 °FBroken clouds.7 mph57%29.80 "HgN/A
10:30 AM70 °FBroken clouds.7 mph64%29.80 "HgN/A
10:00 AM70 °FScattered clouds.6 mph69%29.80 "HgN/A
9:30 AM68 °FScattered clouds.3 mph73%29.80 "HgN/A
9:00 AM68 °FScattered clouds.5 mph73%29.80 "HgN/A
8:30 AM64 °FPartly sunny.No wind83%29.80 "HgN/A
8:00 AM59 °FPartly sunny.2 mph88%29.80 "HgN/A
7:30 AM57 °FBroken clouds.3 mph88%29.80 "HgN/A
7:00 AM55 °FBroken clouds.1 mph88%29.80 "HgN/A
6:30 AM55 °FPartly cloudy.3 mph88%29.80 "HgN/A
6:00 AM55 °FPassing clouds.No wind88%29.80 "HgN/A
5:30 AM57 °FPassing clouds.2 mph82%29.80 "HgN/A
5:00 AM57 °FPassing clouds.3 mph82%29.80 "HgN/A
4:30 AM57 °FPassing clouds.3 mph82%29.80 "HgN/A
4:00 AM57 °FOvercast.3 mph88%29.83 "HgN/A
3:30 AM57 °FOvercast.3 mph88%29.83 "HgN/A
3:00 AM55 °FMostly cloudy.3 mph88%29.83 "HgN/A
2:30 AM55 °FPassing clouds.3 mph88%29.83 "HgN/A
2:00 AM55 °FClear.3 mph88%29.83 "Hg10 mi
1:30 AM55 °FClear.5 mph88%29.86 "Hg10 mi
1:00 AM55 °FPassing clouds.5 mph88%29.86 "HgN/A
12:30 AM55 °FPassing clouds.3 mph94%29.86 "HgN/A
12:00 AM57 °FPassing clouds.5 mph88%29.86 "HgN/A
11:30 PM
Mon, May 25
59 °FPassing clouds.2 mph82%29.89 "HgN/A
10:30 PM61 °FPassing clouds.3 mph83%29.89 "HgN/A
10:00 PM63 °FPassing clouds.5 mph77%29.89 "HgN/A
9:30 PM63 °FPassing clouds.6 mph83%29.89 "HgN/A
9:00 PM64 °FPassing clouds.6 mph78%29.86 "HgN/A
8:30 PM64 °FPassing clouds.2 mph78%29.86 "HgN/A
8:00 PM68 °FPassing clouds.5 mph69%29.86 "HgN/A
7:30 PM70 °FPassing clouds.6 mph57%29.86 "HgN/A
7:00 PM72 °FPassing clouds.7 mph47%29.86 "HgN/A
6:00 PM73 °FPassing clouds.6 mph41%29.89 "HgN/A
5:30 PM73 °FPassing clouds.7 mph41%29.89 "HgN/A
5:00 PM73 °FPassing clouds.7 mph47%29.89 "HgN/A
4:30 PM73 °FPassing clouds.10 mph47%29.89 "HgN/A
4:00 PM75 °FPassing clouds.8 mph44%29.89 "HgN/A
Weather by CustomWeather, © 2015

See weather overviewHow to use our weather pages